AO-07 1 07530U 74089B 21266.49719425 -.00000044 00000-0 12144-4 0 9996 2 07530 101.8661 240.9340 0011995 192.5438 279.6960 12.53650409144013 UO-11 1 14781U 84021B 21266.54608725 .00000177 00000-0 27620-4 0 9996 2 14781 97.5987 261.5840 0009829 114.6279 245.5960 14.83327682 478 LO-19 1 20442U 90005G 21266.44990433 .00000017 00000-0 22827-4 0 9992 2 20442 98.7516 222.8545 0010815 229.9939 130.0296 14.32997849654862 HUBBLE 1 20580U 90037B 21266.36829791 .00000814 00000-0 38213-4 0 9990 2 20580 28.4694 137.1591 0002758 40.6833 122.3031 15.09744269525802 MET-2/21 1 22782U 93055A 21266.35779895 .00000044 00000-0 26121-4 0 9997 2 22782 82.5491 226.1998 0022926 20.4439 132.3384 13.83838054417067 AO-27 1 22825U 93061C 21266.53757415 .00000002 00000-0 18770-4 0 9991 2 22825 98.9150 286.5461 0009492 107.4041 252.8179 14.30124973460273 IO-26 1 22826U 93061D 21266.55466274 -.00000000 00000-0 17813-4 0 9990 2 22826 98.9092 286.4632 0010072 96.0050 264.2279 14.30465269460507 FO-29 1 24278U 96046B 21266.42367262 -.00000029 00000-0 90264-5 0 9995 2 24278 98.5572 321.3782 0349271 255.7740 100.4375 13.53105957239499 NOAA-15 1 25338U 98030A 21266.66564844 .00000043 00000-0 36405-4 0 9990 2 25338 98.6761 294.2821 0010277 1.2924 358.8280 14.26059258215243 GO-32 1 25397U 98043D 21266.30391052 -.00000007 00000-0 16482-4 0 9993 2 25397 98.7783 211.6202 0001918 126.5164 233.6191 14.23715931205411 ISS 1 25544U 98067A 21266.58211281 .00001650 00000-0 38824-4 0 9996 2 25544 51.6436 216.2151 0003452 45.5832 118.4595 15.48426354303849 NO-44 1 26931U 01043C 21266.54151734 -.00000008 00000-0 28816-4 0 9994 2 26931 67.0531 27.2887 0005430 269.0355 91.0124 14.30633203 43224 SO-50 1 27607U 02058C 21266.55930105 .00000080 00000-0 32001-4 0 9990 2 27607 64.5564 38.3310 0052833 352.0314 7.9943 14.75790983 8981 CO-55 1 27844U 03031E 21266.54034800 .00000069 00000-0 50575-4 0 9994 2 27844 98.6821 273.2702 0010405 149.2251 210.9538 14.22333912945969 CO-57 1 27848U 03031J 21266.56279139 .00000050 00000-0 42520-4 0 9997 2 27848 98.6874 273.8504 0010048 162.0428 198.1106 14.21907928945757 RS-22 1 27939U 03042A 21266.80429436 .00000076 00000-0 22273-4 0 9995 2 27939 98.1550 43.2896 0012245 334.9138 25.1473 14.67023580961944 NOAA-18 1 28654U 05018A 21266.68638682 .00000125 00000-0 92011-4 0 9998 2 28654 98.9851 331.9001 0014233 9.3706 350.7729 14.12640299842401 CO-58 1 28895U 05043F 21266.30256547 .00000243 00000-0 55337-4 0 9999 2 28895 98.0724 37.4772 0015444 261.4209 98.5244 14.63961829848322 Falconsat-3 1 30776U 07006E 21266.49801717 .00008920 00000-0 20568-3 0 9993 2 30776 35.4336 189.6459 0000664 64.6208 295.4589 15.41847064808247 CO-65 1 32785U 08021C 21266.46082602 .00000516 00000-0 60719-4 0 9990 2 32785 97.6218 241.5542 0014075 43.6014 316.6313 14.88806660726755 AAUSAT2 1 32788U 08021F 21266.49941088 .00000907 00000-0 86209-4 0 9994 2 32788 97.5119 257.0871 0010395 305.9243 54.1013 14.95765920728511 DO-64 1 32789U 08021G 21266.60798221 .00002854 00000-0 18197-3 0 9990 2 32789 97.3695 298.1843 0012363 157.0086 203.1699 15.09433409731736 CO-66 1 32791U 08021J 21266.51433287 .00000802 00000-0 85371-4 0 9991 2 32791 97.5806 247.4165 0013372 6.7667 353.3730 14.91529845727475 RS-30 1 32953U 08025A 21266.65872132 .00000021 00000-0 80971-4 0 9990 2 32953 82.5087 349.8581 0020685 122.3982 237.9104 12.43104694605180 PRISM 1 33493U 09002B 21266.46816308 .00001988 00000-0 17415-3 0 9993 2 33493 98.2002 233.7981 0013819 329.7239 30.3182 14.97877757688994 NOAA-19 1 33591U 09005A 21266.65899801 .00000043 00000-0 48465-4 0 9996 2 33591 99.1796 289.7787 0013403 213.7325 146.2994 14.12496603650783 SRMSAT 1 37841U 11058D 21266.45156251 .00000313 00000-0 26976-4 0 9995 2 37841 19.9729 68.7662 0011835 290.7953 88.2823 14.10704428513494 HRBE 1 37855U 11061F 21266.49098768 .00002958 00000-0 14688-3 0 9999 2 37855 101.7191 240.8027 0165441 138.8863 222.4955 15.08146646540954 RS-40 1 38735U 12041C 21266.82437612 .00000010 00000-0 41138-5 0 9997 2 38735 82.4727 71.7479 0016521 230.4636 129.4976 12.42583400415403 ZACUBE-1 1 39417U 13066B 21266.51516129 .00000413 00000-0 57579-4 0 9992 2 39417 97.6028 245.8121 0057904 198.2886 161.6246 14.81598717423598 Delfi-N3xt 1 39428U 13066N 21266.29458740 .00000936 00000-0 15393-3 0 9990 2 39428 97.7855 207.7907 0120891 51.8048 309.3972 14.68114674419322 GOMX-1 1 39430U 13066Q 21266.76563055 .00000188 00000-0 42730-4 0 9996 2 39430 97.8103 184.1819 0150544 164.7068 195.8761 14.59674612417387 LO-74 1 39440U 13066AA 21266.46059317 .00000442 00000-0 67913-4 0 9998 2 39440 97.6872 231.0238 0078225 277.8585 81.3752 14.76323610420887 AO-73 1 39444U 13066AE 21266.50625618 .00000470 00000-0 63202-4 0 9998 2 39444 97.5929 248.1841 0057189 187.9899 172.0411 14.82522653422558 SPROUT 1 39770U 14029E 21266.75355362 .00001129 00000-0 12704-3 0 9995 2 39770 97.9226 17.9942 0007687 240.6064 119.4418 14.88655939397965 DTUSAT-2 1 40030U 14033W 21266.53188930 .00000565 00000-0 65865-4 0 9992 2 40030 97.9159 193.7606 0010936 206.3419 153.7243 14.89083452393919 EO-80 1 40032U 14033Y 21266.22902438 .00000565 00000-0 65980-4 0 9995 2 40032 97.9164 193.4659 0010887 208.5223 151.5399 14.89042811393848 HODOYOSHI-1 1 40299U 14070B 21266.74230541 .00001075 00000-0 45882-4 0 9993 2 40299 97.2789 337.6366 0012888 8.5583 109.0685 15.24949396382394 FIREBIRD FU3 1 40377U 15003B 21266.72071545 .00009029 00000-0 32069-3 0 9991 2 40377 99.1123 68.6737 0115264 203.0534 156.5502 15.23198391367755 FIREBIRD FU4 1 40378U 15003C 21266.43098776 .00008097 00000-0 28755-3 0 9996 2 40378 99.1128 68.4796 0115346 203.8047 155.7826 15.23245482367701 GRIFEX 1 40379U 15003D 21266.66166287 .00005209 00000-0 20860-3 0 9996 2 40379 99.1096 57.2111 0126054 237.9671 120.9263 15.18603619367097 NO-84 1 40654U 15025D 21265.36706752 .00052574 11433-4 28260-3 0 1615 2 40654 54.9734 301.4898 0059885 329.5342 30.2289 15.78201915 22310 XW-2A 1 40903U 15049E 21266.77990730 .00004180 00000-0 86971-4 0 9992 2 40903 97.2259 320.9568 0012518 24.7131 112.7498 15.46111310337985 XW-2C 1 40906U 15049H 21266.72532481 .00001147 00000-0 61429-4 0 9996 2 40906 97.4891 267.8802 0013739 200.2312 275.1582 15.16970369332460 XW-2D 1 40907U 15049J 21266.83091730 .00001077 00000-0 57329-4 0 9992 2 40907 97.4879 267.8150 0013137 195.1341 286.4955 15.17320287332513 LILACSAT-2 1 40908U 15049K 21266.73256279 .00000806 00000-0 47175-4 0 9990 2 40908 97.5082 265.4166 0014585 215.3840 258.8818 15.14576012332101 XW-2E 1 40909U 15049L 21266.81914529 .00001860 00000-0 89650-4 0 9994 2 40909 97.4686 271.9373 0012790 179.3318 305.1333 15.19917179332878 XW-2F 1 40910U 15049M 21266.79780227 .00001809 00000-0 88523-4 0 9990 2 40910 97.4738 271.0019 0013883 180.7533 352.0252 15.19415121332652 XW-2B 1 40911U 15049N 21266.89479844 .00001053 00000-0 56267-4 0 9993 2 40911 97.4881 268.5460 0012862 196.9282 228.2259 15.17233976332418 DCBB 1 40912U 15049P 21266.81812734 .00002078 00000-0 93868-4 0 9991 2 40912 97.4453 275.4070 0014922 151.4244 333.4422 15.22003754333159 TW-1A 1 40928U 15051D 21266.82838140 .00007250 00000-0 14472-3 0 9991 2 40928 97.0716 289.4159 0007321 299.9980 181.0173 15.47103681336898 IO-86 1 40931U 15052B 21266.40864341 .00000820 00000-0 24986-4 0 9990 2 40931 6.0005 273.7993 0013405 349.3644 10.6466 14.76691178323805 ATHENOXAT-1 1 41168U 15077C 21266.68498843 .00003049 00000-0 11773-3 0 9995 2 41168 14.9863 258.5547 0010956 102.3333 236.1582 15.16146118319706 ChubuSat-2 1 41338U 16012B 21266.45054336 .00000653 00000-0 43691-4 0 9997 2 41338 31.0027 282.7193 0013595 24.8861 335.2428 15.00609734307336 ChubuSat-3 1 41339U 16012C 21266.73019342 .00000488 00000-0 30854-4 0 9990 2 41339 31.0118 278.0687 0013535 34.7881 325.3650 15.00750654307379 Horyu-4 1 41340U 16012D 21266.37830685 .00001011 00000-0 68702-4 0 9999 2 41340 31.0042 262.6454 0013671 65.7383 294.4680 15.02024096307522 [email protected] 1 41459U 16025D 21266.86349873 .00003914 00000-0 18940-3 0 9994 2 41459 98.1554 49.0457 0159447 91.0080 270.9447 15.08687036297256 AAUSAT4 1 41460U 16025E 21266.88263806 .00004281 00000-0 19632-3 0 9996 2 41460 98.1565 53.4581 0145482 73.0618 288.6552 15.12042845297585 LO-87 1 41557U 16033B 21266.78572650 .00002562 00000-0 90931-4 0 9993 2 41557 97.3940 0.2051 0011265 242.9400 233.5027 15.29936685296564 NuSat2 1 41558U 16033C 21266.78320500 .00002683 00000-0 89165-4 0 9990 2 41558 97.4068 4.4878 0010413 234.7038 244.2581 15.32042832296773 Lapan A3 1 41603U 16040E 21266.74557964 .00000195 00000-0 12031-4 0 9995 2 41603 97.2469 309.8964 0013812 25.3325 84.6128 15.20102406291515 Pratham 1 41783U 16059A 21266.39402659 .00000103 00000-0 28983-4 0 9997 2 41783 97.9547 313.0955 0032247 298.1627 61.6319 14.63167572266579 TY-1 1 41844U 16066D 21266.82609061 .00001512 00000-0 61296-4 0 9996 2 41844 97.3987 276.0429 0015389 144.9798 333.1269 15.26090318270904 CAS-2T 1 41847U 16066G 21266.43006820 .00000132 00000-0 31123-4 0 9993 2 41847 98.5915 325.9180 0363967 287.9634 68.2200 14.38238292255961 EO-88 1 42017U 17008BX 21266.43463273 .00004700 00000-0 17058-3 0 9994 2 42017 97.3071 332.2709 0007464 115.6051 244.5961 15.28775960256227 CAS-4B 1 42759U 17034B 21266.71167068 .00000727 00000-0 56794-4 0 9996 2 42759 43.0191 0.8315 0007294 50.5269 76.1989 15.10379052236007 CAS-4A 1 42761U 17034D 21266.76576799 .00000567 00000-0 47130-4 0 9995 2 42761 43.0203 359.5135 0007730 53.0201 88.4522 15.10465948236017 NIUSat 1 42766U 17036B 21266.67716036 .00002318 00000-0 10095-3 0 9997 2 42766 97.2410 309.2115 0014766 182.8118 177.3039 15.23087928236167 Aalto 1 1 42775U 17036L 21266.39255659 .00001838 00000-0 80959-4 0 9998 2 42775 97.2377 309.1331 0013282 182.2858 177.8320 15.22970539236105 URSA MAIOR 1 42776U 17036M 21266.37712716 .00002042 00000-0 88880-4 0 9998 2 42776 97.2391 309.6425 0013088 181.4593 178.6609 15.23265635236128 Max Valier Sat 1 42778U 17036P 21266.41260709 .00002175 00000-0 92630-4 0 9990 2 42778 97.2457 311.7817 0011666 182.0027 178.1166 15.23956447236201 Pegasus 1 42784U 17036V 21266.35934235 .00003141 00000-0 12900-3 0 9997 2 42784 97.2406 312.2643 0011151 184.5714 175.5424 15.24860907236275 NUDATSat 1 42787U 17036Y 21266.62749711 .00004000 00000-0 15331-3 0 9999 2 42787 97.2465 315.2724 0009186 177.6013 182.5272 15.27039776236315 SUCHAI 1 1 42788U 17036Z 21266.37051498 .00003743 00000-0 14928-3 0 9994 2 42788 97.2416 313.3980 0010753 180.8693 179.2529 15.25739798236415 SKCUBE 1 42789U 17036AA 21266.08983164 .00003170 00000-0 12801-3 0 9999 2 42789 97.2410 312.7891 0010609 182.4570 177.6618 15.25433293236272 VZLUSAT 1 1 42790U 17036AB 21266.36131860 .00005098 00000-0 19482-3 0 9993 2 42790 97.2442 315.0009 0010205 175.4830 184.6504 15.27001821236428 VENTA 1 1 42791U 17036AC 21266.40327881 .00003047 00000-0 12348-3 0 9995 2 42791 97.2407 313.0931 0010328 181.7617 178.3587 15.25351305236313 Robusta 1B 1 42792U 17036AD 21266.37065207 .00003679 00000-0 14694-3 0 9990 2 42792 97.2413 313.4805 0010248 181.0115 179.1105 15.25702242236351 D-SAT 1 42794U 17036AF 21266.56720975 .00000405 00000-0 40289-4 0 9997 2 42794 97.4597 281.2398 0123645 257.8809 100.8536 14.91687530231689 TechnoSat 1 42829U 17042E 21266.61656072 .00000250 00000-0 30264-4 0 9995 2 42829 97.4541 130.8680 0014180 173.0302 187.1117 14.91345851228316 QIKCOM-1 1 42983U 98067NF 21266.30030814 .00015377 00000-0 13587-3 0 9992 2 42983 51.6346 121.5277 0002360 10.4147 349.6898 15.68880483222752 AO-91 1 43017U 17073E 21266.66103755 .00001885 00000-0 14974-3 0 9993 2 43017 97.6953 166.7086 0253906 340.2520 18.8994 14.79759633207643 EcAMSat 1 43019U 98067NG 21266.71650310 .00092372 00000-0 33111-3 0 9992 2 43019 51.6372 73.1755 0002172 305.7676 54.3127 15.88020253305753 PICSAT 1 43132U 18004X 21266.47835230 .00004010 00000-0 15721-3 0 9999 2 43132 97.4023 340.1346 0007956 213.4991 146.5746 15.26313521205635 AO-92 1 43137U 18004AC 21266.13752046 .00002778 00000-0 11199-3 0 9994 2 43137 97.3994 339.1569 0007634 217.7941 142.2762 15.25645990205555 TianYi 2 1 43155U 18008A 21266.89732315 .00001508 00000-0 89481-4 0 9998 2 43155 97.3933 328.8748 0016863 353.8992 92.1416 15.12717930202954 Zhou Enlai 1 43156U 18008B 21266.86316123 .00001472 00000-0 88434-4 0 9998 2 43156 97.3978 328.6805 0014209 355.1486 124.7213 15.12342750202884 TianYi 6 1 43158U 18008D 21266.71076760 .00001582 00000-0 96370-4 0 9994 2 43158 97.3940 326.9648 0013335 355.7429 121.1123 15.11737419202782 S-Net D 1 43186U 18014G 21266.54021242 .00000571 00000-0 54391-4 0 9992 2 43186 97.6674 172.3242 0012236 111.0456 249.2076 14.97139507198976 S-Net B 1 43187U 18014H 21266.54016815 .00000573 00000-0 54538-4 0 9998 2 43187 97.6671 172.2871 0012237 110.9630 249.2903 14.97138895198972 S-Net A 1 43188U 18014J 21266.54029384 .00000572 00000-0 54433-4 0 9997 2 43188 97.6675 172.3364 0012231 111.0470 249.2061 14.97137727198971 S-Net C 1 43189U 18014K 21266.54079023 .00000594 00000-0 56409-4 0 9992 2 43189 97.6671 172.2793 0012250 110.9550 249.2984 14.97137506197520 FMN 1 1 43192U 18015A 21266.88162863 .00004830 00000-0 17455-3 0 9993 2 43192 97.5013 42.8659 0012885 253.3446 235.1083 15.28877154202623 Shaonian Xing 1 43199U 18015H 21266.87860145 .00003212 00000-0 11969-3 0 9994 2 43199 97.4794 39.6404 0014148 264.2211 213.9180 15.28116666202673 SurfSat 1 43614U 18070B 21266.68876250 .00009176 00000-0 20602-3 0 9999 2 43614 93.0345 346.9747 0012873 353.3840 6.7245 15.43286787169811 CP-7 DAVE 1 43615U 18070C 21266.46648998 .00008268 00000-0 18779-3 0 9995 2 43615 93.0350 346.8245 0013148 354.4033 5.7074 15.42942475169767 ELFIN-B 1 43616U 18070D 21266.54301146 .00014903 00000-0 29895-3 0 9990 2 43616 93.0301 347.1813 0012312 349.4780 10.6218 15.46583312169922 ELFIN-A 1 43617U 18070E 21266.27564835 .00015195 00000-0 29900-3 0 9998 2 43617 93.0351 348.0132 0011620 347.6720 12.4252 15.47150305169906 CubeBel-1 1 43666U 18083E 21266.76646307 .00001630 00000-0 79356-4 0 9995 2 43666 97.4502 293.8896 0014351 179.3411 300.9160 15.19709442160940 Changshagaoxin 1 43669U 18083H 21266.77026359 .00001515 00000-0 76747-4 0 9991 2 43669 97.4414 290.6670 0010487 173.3803 303.6307 15.18466686160802 Ten-Koh 1 43677U 18084G 21266.33519689 .00000284 00000-0 34934-4 0 9990 2 43677 97.9322 29.6912 0017373 73.8449 286.4679 14.90527535157888 PO-101 1 43678U 18084H 21266.85348275 .00000439 00000-0 49298-4 0 9990 2 43678 97.9357 32.7101 0011378 86.4516 273.8014 14.91793813158100 IRVINE 01 1 43693U 18088D 21266.65053088 .00008012 00000-0 30371-3 0 9990 2 43693 85.0318 129.6614 0017164 28.7062 331.5123 15.26566175159417 QO-100 1 43700U 18090A 21266.35258023 .00000135 00000-0 00000-0 0 9996 2 43700 0.0124 233.7853 0002461 337.3621 304.0219 1.00273630 10352 Reaktor Hello World 1 43743U 18096AA 21266.48297313 .00003543 00000-0 12703-3 0 9990 2 43743 97.3798 343.2447 0015314 290.7963 69.1636 15.29282040157112 MinXSS-2 1 43758U 18099A 21266.41691706 .00001210 00000-0 11219-3 0 9996 2 43758 97.6593 335.5456 0017136 82.2682 278.0485 14.96189202153167 AO-95 1 43770U 18099N 21266.41245829 .00001062 00000-0 10100-3 0 9994 2 43770 97.6570 334.4004 0016113 90.7250 269.5817 14.95435678153098 RANGE-B 1 43772U 18099Q 21266.42017847 .00001201 00000-0 11257-3 0 9993 2 43772 97.6662 335.5594 0015652 79.0028 281.2953 14.95769555153106 RANGE-A 1 43773U 18099R 21266.42591924 .00000236 00000-0 26511-4 0 9994 2 43773 97.6502 333.6360 0015018 78.7784 281.5124 14.95298890153080 MOVE-II 1 43780U 18099Y 21266.13163532 .00001279 00000-0 11856-3 0 9993 2 43780 97.6589 334.7793 0014841 88.9989 271.2933 14.96102404153077 SNUSat 2 1 43782U 18099AA 21266.42963284 .00000361 00000-0 37555-4 0 9995 2 43782 97.6570 334.7925 0014212 77.7550 282.5262 14.95669665153119 SnugLite 1 43784U 18099AC 21266.42948961 .00000380 00000-0 39113-4 0 9995 2 43784 97.6534 334.4938 0016542 84.3631 275.9476 14.95805094153137 ITASat 1 1 43786U 18099AE 21266.44668809 .00000230 00000-0 25751-4 0 9996 2 43786 97.6588 335.1802 0016515 83.9835 276.3268 14.95712877153137 EAGLET 1 1 43790U 18099AJ 21266.19087738 .00000406 00000-0 41177-4 0 9994 2 43790 97.6576 335.3810 0014857 88.2568 272.0355 14.96052850152822 ESEO 1 43792U 18099AL 21266.45960331 .00000362 00000-0 37445-4 0 9998 2 43792 97.6540 335.1550 0014729 85.0876 275.2027 14.95786711152919 CSIM 1 43793U 18099AM 21266.42462193 .00001242 00000-0 11340-3 0 9992 2 43793 97.6586 335.6866 0014586 81.5368 278.7507 14.96775244152925 Astrocast 0.1 1 43798U 18099AS 21266.45973345 .00000669 00000-0 64179-4 0 9997 2 43798 97.6582 335.8819 0013537 69.4601 290.8072 14.96300513153179 JO-97 1 43803U 18099AX 21266.46059498 .00000853 00000-0 80969-4 0 9999 2 43803 97.6547 334.9356 0016474 84.1922 276.1177 14.95981178153147 Suomi 100 1 43804U 18099AY 21266.46816973 .00001063 00000-0 99770-4 0 9993 2 43804 97.6546 334.9011 0016657 84.3639 275.9481 14.95947624153159 Al Farabi 2 1 43805U 18099AZ 21266.38710139 .00000390 00000-0 39572-4 0 9998 2 43805 97.6560 335.0977 0016417 83.8004 276.5118 14.96192435153150 CHOMPTT 1 43855U 18104G 21266.60772300 .00002853 00000-0 11457-3 0 9990 2 43855 85.0374 228.4230 0018530 137.6362 222.6316 15.24313638154042 ISAT 1 43879U 18111D 21266.87353923 .00000309 00000-0 31995-4 0 9993 2 43879 97.6747 172.3563 0013771 129.4006 230.8451 14.96753807147770 UWE-4 1 43880U 18111E 21266.71252050 .00000378 00000-0 37857-4 0 9996 2 43880 97.6780 172.7320 0013165 128.9983 231.2413 14.96994025147782 Sparrow 1 43881U 18111F 21266.54573865 .00001030 00000-0 94282-4 0 9999 2 43881 97.6780 172.7197 0013521 128.7298 231.5135 14.97048341149764 Lume 1 1 43908U 18111AJ 21266.66155402 .00003310 00000-0 12843-3 0 9990 2 43908 97.2191 158.1854 0018722 306.6591 53.2927 15.26637227152655 FO-98 1 43933U 19003B 21266.38439005 .00024533 00000-0 84970-3 0 9992 2 43933 97.1753 304.2600 0015957 51.5968 308.6703 15.29717403149068 FO-99 1 43937U 19003F 21266.35547273 .00003566 00000-0 13940-3 0 9992 2 43937 97.1676 305.5952 0023613 29.4894 330.7672 15.26227451149191 MYSat 1 1 44045U 18092F 21266.49196144 .00008591 00000-0 21323-3 0 9999 2 44045 51.6372 307.3732 0009164 200.8548 159.2064 15.41148997146574 AstroCast 0.2 1 44083U 19018F 21266.67927480 .00002986 00000-0 12986-3 0 9992 2 44083 97.3630 325.8927 0012321 355.2268 4.8849 15.22975661137845 AISTechSat 3 1 44103U 19018AB 21266.75381176 .00001685 00000-0 71544-4 0 9991 2 44103 97.3498 326.3947 0013081 5.2409 114.7444 15.24385015137988 AISat 1 1 44104U 19018AC 21266.49749591 .00002164 00000-0 68383-4 0 9992 2 44104 97.4196 344.0176 0056320 8.0224 352.1905 15.32423827138686 Raavana-1 1 44329U 98067QE 21266.01356472 .00499227 12520-3 77321-3 0 9996 2 44329 51.6271 135.0467 0006495 242.6467 117.3884 16.03549379129648 Uguisu 1 44330U 98067QF 21266.02457781 .00354004 63953-4 68641-3 0 9999 2 44330 51.6223 136.4942 0005552 238.4723 121.5744 15.99763217129602 NepaliSat-1 1 44331U 98067QG 21266.33621483 .00522100 13540-3 83663-3 0 9997 2 44331 51.6229 133.3261 0006324 244.5661 115.4696 16.02981080129687 Prox-1 1 44339U 19036A 21266.19105432 .00001427 00000-0 28428-3 0 9995 2 44339 24.0005 78.5651 0010718 171.7127 188.3542 14.53755318119409 Oculus-ASR 1 44348U 19036K 21266.52121876 .00017425 00000-0 22715-3 0 9990 2 44348 28.5128 199.8969 0318896 250.7540 105.8294 15.14991731123781 Armadillo 1 44352U 19036P 21266.40717372 .00029913 00000-0 35437-3 0 9994 2 44352 28.5284 171.1931 0282163 295.3243 61.8380 15.24336371124011 NO-104 1 44354U 19036R 21266.11854678 .00017066 00000-0 21643-3 0 9995 2 44354 28.5292 194.3190 0313504 257.5263 99.0087 15.16616341123804 NO-103 1 44355U 19036S 21266.29639735 .00059142 -53798-5 57217-3 0 9995 2 44355 28.5251 130.1846 0238047 1.9723 358.1774 15.36562965124465 CP9 1 44360U 19036X 21266.55280155 .00305844 21773-4 11473-2 0 9990 2 44360 28.4965 31.4663 0111905 162.8543 197.5888 15.77191564125316 Move-IIb 1 44398U 19038N 21266.86227181 .00002891 00000-0 16144-3 0 9990 2 44398 97.5929 230.5057 0023553 334.6285 25.3799 15.14119447122650 SONATE 1 44400U 19038Q 21266.88039588 .00001381 00000-0 82136-4 0 9996 2 44400 97.5994 230.3093 0024199 335.0218 24.9841 15.12747629122618 BeeSat 9 1 44412U 19038AC 21266.45544241 .00002976 00000-0 16868-3 0 9998 2 44412 97.5987 230.2408 0021448 341.1248 18.9185 15.13605202122274 JAISAT-1 1 44419U 19038F 21266.45991741 .00002917 00000-0 16325-3 0 9999 2 44419 97.5990 230.8704 0020263 339.2516 20.7890 15.14091106122626 LightSail-2 1 44420U 19036AC 21266.72145194 .00012715 00000-0 25162-2 0 9997 2 44420 24.0061 48.1169 0013099 239.9708 119.9485 14.60564995117991 Taurus 1 1 44530U 19059C 21266.76896171 .00000482 00000-0 14719-3 0 9991 2 44530 98.5516 357.9557 0013748 199.9861 160.0798 14.46186733107292 Duchifat 3 1 44854U 19089C 21266.60809834 .00000684 00000-0 60842-4 0 9999 2 44854 36.9665 240.1136 0008234 220.9975 139.0153 14.99634209 97847 OPS-SAT 1 44878U 19092F 21266.56075759 .00002016 00000-0 10583-3 0 9992 2 44878 97.4779 88.6610 0013415 183.0280 177.0875 15.16804926 97701 TO-108 1 44881U 19093C 21266.74052772 .00000094 00000-0 18760-4 0 9997 2 44881 97.9188 344.4743 0014610 338.8984 21.1628 14.81482304 95282 FloripaSat 1 1 44885U 19093G 21266.70366977 .00000352 00000-0 50622-4 0 9992 2 44885 97.9209 345.1735 0014075 346.8137 13.2707 14.82382553 95324 RS-44 1 44909U 19096E 21266.51106823 .00000007 00000-0 -11297-4 0 9996 2 44909 82.5224 47.6421 0216800 223.6536 134.7239 12.79711111 81367 SwampSat-2 1 45115U 19071E 21266.50484396 .00285238 00000-0 20984-2 0 9993 2 45115 51.6291 242.3455 0004661 47.2673 312.8717 15.71645797 92757 HO-107 1 45119U 19071J 21266.45539467 .00006318 00000-0 18466-3 0 9994 2 45119 51.6404 281.4431 0010456 287.2227 72.7611 15.36561696 92239 Phoenix 1 45258U 98067RB 21266.52366938 .00022423 00000-0 28884-3 0 9999 2 45258 51.6383 197.4097 0003932 253.0199 107.0363 15.58936400 90498 AztechSat-1 1 45261U 98067RE 21266.17954276 .00090557 00000-0 61917-3 0 9999 2 45261 51.6328 180.0153 0002140 248.2143 111.8628 15.74029419 90721 QARMAN 1 45263U 98067RG 21266.41058616 .00052225 00000-0 48139-3 0 9992 2 45263 51.6364 187.6378 0002856 262.8434 97.2238 15.67088433 90675 Quetzal 1 1 45598U 98067RL 21266.21553730 .00044432 00000-0 46006-3 0 9990 2 45598 51.6381 194.6286 0001834 69.6258 290.4934 15.64246535 79834 BY70-2 1 45857U 20042B 21266.79784268 .00001323 00000-0 19355-3 0 9990 2 45857 97.9787 341.5175 0009571 251.9302 108.0866 14.77297955 66061 UPMSat 2 1 46276U 20061E 21266.46599947 .00001068 00000-0 57980-4 0 9992 2 46276 97.4249 338.2453 0002529 59.7624 300.3860 15.16633545 58395 AmicalSat 1 46287U 20061R 21266.14815245 .00001409 00000-0 88891-4 0 9995 2 46287 97.4801 337.2485 0004240 110.7039 249.4646 15.10685634 58097 SALSAT 1 46495U 20068K 21266.55989292 .00000702 00000-0 55749-4 0 9993 2 46495 97.6981 203.5016 0018557 99.9950 260.3369 15.03561439 54076 BY70-3 1 46839U 20079N 21266.88347442 .00004164 00000-0 12716-3 0 9990 2 46839 97.2339 338.7955 0006483 198.0958 274.7258 15.34429917 49290 SPOC 1 46921U 98067RR 21266.56887391 .00021753 00000-0 30622-3 0 9990 2 46921 51.6412 206.0276 0003011 91.1435 268.9902 15.56577730 50124 Bobcat-1 1 46922U 98067RS 21266.25209525 .00031694 00000-0 39743-3 0 9992 2 46922 51.6411 204.6920 0003020 98.3483 261.7852 15.59448302 50081 Neutron-1 1 46923U 98067RT 21266.39986369 .00019268 00000-0 27350-3 0 9990 2 46923 51.6411 207.1454 0002982 100.3989 259.7339 15.56438596 50137 CAPE 3 1 47309U 21002A 21266.53046331 .00002513 00000-0 12113-3 0 9992 2 47309 60.6824 285.1787 0046098 99.7659 260.8637 15.21160922 37800 AO-109 1 47311U 21002C 21266.51628295 .00002204 00000-0 10559-3 0 9997 2 47311 60.6853 284.0079 0042111 97.4702 263.1172 15.22020677 37794 MiTEE 1 1 47314U 21002F 21266.74720759 .00004514 00000-0 19333-3 0 9998 2 47314 60.6834 281.1039 0041877 90.3257 270.2629 15.23762854 37882 ExoCube 2 1 47319U 21002L 21266.77368938 .00001921 00000-0 94507-4 0 9999 2 47319 60.6844 283.5361 0043166 99.4024 261.1946 15.21647764 37798 UVSQ-SAT 1 47438U 21006AB 21266.44447379 .00001688 00000-0 98063-4 0 9997 2 47438 97.4779 325.8784 0014162 116.9909 243.2771 15.13381773 36876 YUSAT 1 1 47439U 21006AC 21266.71054812 .00002068 00000-0 11923-3 0 9996 2 47439 97.4782 326.1431 0014029 116.5310 243.7361 15.13414255 36915 SOMP 2b 1 47445U 21006AJ 21266.66790723 .00001544 00000-0 90439-4 0 9993 2 47445 97.4751 325.9502 0013752 119.7587 240.5015 15.13209170 36905 IDEASSat 1 47458U 21006AX 21266.42515154 .00001530 00000-0 90037-4 0 9993 2 47458 97.4841 325.9541 0012849 118.4687 241.7840 15.13071733 36861 RSP-01 1 47925U 98067SB 21266.26663954 .00020849 00000-0 32436-3 0 9999 2 47925 51.6418 213.7400 0002834 61.9506 298.1771 15.53869474 29979 TAUSAT-1 1 47926U 98067SC 21266.44672121 .00028572 00000-0 42438-3 0 9990 2 47926 51.6403 211.9368 0003811 57.6186 302.5173 15.54947168 30009 Tsuru 1 47927U 98067SD 21265.57997781 .00017131 00000-0 27184-3 0 9996 2 47927 51.6417 217.4034 0002863 56.8126 303.3139 15.53467811 29861 STARS-EC 1 47928U 98067SE 21266.56988495 .00030539 00000-0 45807-3 0 9998 2 47928 51.6413 212.0066 0006431 111.3394 248.8283 15.54628721 30004 Maya-2 1 47929U 98067SF 21266.15523924 .00018042 00000-0 28542-3 0 9998 2 47929 51.6418 214.4948 0002874 55.7223 304.4039 15.53512748 29910 OPUSAT-II 1 47930U 98067SG 21266.39673658 .00030101 00000-0 44266-3 0 9997 2 47930 51.6412 212.3623 0002859 60.3055 299.8221 15.55194191 30003 GuaraniSat-1 1 47931U 98067SH 21266.15343855 .00017936 00000-0 28359-3 0 9991 2 47931 51.6419 214.4855 0002903 54.9085 305.2177 15.53532344 29951 CubeSX-Sirius-HSE 1 47951U 21022V 21266.87957159 .00001586 00000-0 11302-3 0 9991 2 47951 97.5479 167.0169 0021634 339.9360 109.3210 15.05832770 27865 CubeSX-HSE 1 47952U 21022W 21266.87487593 .00001436 00000-0 10266-3 0 9994 2 47952 97.5476 167.0200 0021373 339.6795 110.2526 15.05873291 27862 KSU-Cubesat 1 47954U 21022Y 21266.51615697 .00001195 00000-0 85955-4 0 9995 2 47954 97.5483 166.6998 0021086 341.4875 18.5583 15.05964963 27536 GRBAlpha 1 47959U 21022AD 21266.67516596 .00001490 00000-0 10634-3 0 9994 2 47959 97.5479 166.8378 0021231 340.8280 105.9022 15.05874529 26654 Orbicraft-Zorkiy 1 47960U 21022AE 21266.86638840 .00001187 00000-0 85461-4 0 9998 2 47960 97.5506 167.0734 0021017 340.4307 107.2786 15.05947864 27379 STECCO 1 47962U 21022AG 21266.73837834 .00001941 00000-0 13326-3 0 9998 2 47962 97.5459 167.1549 0016302 338.1436 105.9600 15.07057194 26673 DO-111 1 47963U 21022AH 21266.66656763 .00005109 00000-0 33689-3 0 9995 2 47963 97.5478 167.2410 0018943 334.7865 25.2437 15.07776754 26698 MO-110 1 47964U 21022AJ 21266.69045881 .00001931 00000-0 13150-3 0 9992 2 47964 97.5466 167.1986 0019197 334.5494 25.4787 15.07331703 26670 FEES 1 48082U 21022AL 21266.67870805 .00003731 00000-0 25299-3 0 9991 2 48082 97.5477 167.0884 0015614 332.5225 27.5175 15.06952047 26370 RamSat 1 48850U 98067SL 21266.38682825 .00012868 00000-0 22400-3 0 9990 2 48850 51.6416 216.0133 0004836 133.1163 227.0232 15.51126524 15708 MO-112 1 48868U 98067SP 21266.43004170 .00026934 00000-0 43992-3 0 9994 2 48868 51.6410 215.5548 0003809 123.9317 236.2035 15.52352919 14490 TUBIN 1 48900U 21059X 21266.90372216 .00001020 00000-0 62665-4 0 9997 2 48900 97.5208 34.3528 0009235 307.8209 167.4971 15.12294207 13616 /EX